CAPE
155 130 204 275 398 452 470 307 357 477 591 568 615 776 965 930 1065 1092 1022 1021 1144 958 897 961 1091 1053 1151 969 1400 1082 1057 933 997 1195 613 735 851 1099 1504 1357 1294 1734 1074
251 327 266 306 447 413 388 421 391 684 666 657 718 786 933 878 1075 1100 1062 1041 984 943 952 835 825 743 907 852 971 1013 1037 925 965 1102 768 831 1026 1036 1059 1214 1399 859 867
147 301 505 584 616 501 530 608 704 674 749 596 524 639 776 745 837 903 954 1149 1081 1017 800 791 956 766 1005 1028 1054 707 973 1078 1136 1184 1177 1157 1133 971 1131 1178 1031 1034 477
80 69 141 190 171 179 152 266 452 610 766 633 598 544 601 520 438 502 570 910 1103 1101 1064 929 898 837 925 1219 1267 1334 1337 1304 1398 1244 1462 1559 1416 1366 1229 1032 1140 1071 917
81 46 55 85 68 0 46 65 101 235 504 767 903 849 887 843 763 665 654 615 1082 1137 1240 1309 1229 1127 1069 1219 1394 1745 1262 1306 1328 1259 1283 1162 1228 1157 1263 1227 1216 881 805
121 109 70 41 67 53 44 42 30 43 80 265 511 745 938 970 992 1074 1125 1083 1235 1364 1476 1525 1384 1332 1291 1223 1153 1208 1204 1575 1767 1304 1407 1381 1522 978 1050 1016 979 929 985
88 115 125 126 69 26 2 18 41 37 54 78 87 197 391 606 783 846 992 1055 984 1172 1266 1301 1335 1263 1177 1192 1082 1089 1250 1395 1469 1670 1485 1584 1281 1261 1042 1150 1032 973 916
93 57 94 103 89 66 11 28 53 43 48 57 50 66 101 199 248 349 476 568 810 913 883 864 855 918 882 945 927 1075 1176 1119 963 927 1030 1056 1200 1257 914 947 889 788 752
100 91 174 99 67 21 32 20 73 28 27 61 34 114 104 96 123 140 203 311 414 448 555 655 660 756 796 894 908 886 939 968 993 1001 970 926 920 868 779 703 685 740 841
146 244 135 60 35 4 2 21 80 56 64 36 61 67 57 50 64 95 137 153 208 262 301 341 437 563 614 541 609 713 729 772 780 815 876 931 950 946 910 841 802 792 775
0 6 15 49 52 91 54 119 121 62 103 99 36 54 54 15 5 22 40 43 38 46 79 135 204 221 242 271 371 382 388 517 469 476 461 494 541 547 579 631 610 558 616
0 0 0 0 0 0 0 0 0 0 0 34 61 69 74 46 43 4 6 6 24 65 64 70 84 93 70 63 83 73 108 135 143 104 81 77 74 146 230 300 622 350 470
0 0 0 0 0 0 0 0 0 0 0 0 0 0 0 0 3 10 15 2 4 4 5 5 19 48 53 43 26 9 6 5 26 23 0 0 8 90 243 433 528 582 619
0 0 0 0 0 0 0 0 0 0 0 0 0 0 0 0 0 0 0 0 0 0 0 0 0 0 0 1 16 10 9 6 0 0 0 0 59 19 160 321 335 597 326
0 0 0 0 0 0 0 0 0 0 0 0 0 0 0 0 0 0 0 0 0 0 0 0 0 0 0 0 0 0 1 0 0 1 0 0 0 0 0 0 0 32 123
0 0 0 0 0 0 0 0 0 0 0 0 0 0 0 0 0 0 0 0 0 0 0 0 0 3 5 7 4 13 14 0 0 0 0 0 0 0 0 0 0 0 12
0 0 0 0 0 0 0 0 0 0 0 0 0 0 0 0 0 0 0 0 0 0 0 0 0 14 6 9 31 4 1 0 2 1 0 0 0 0 0 0 0 0 0
0 0 0 0 0 0 0 0 0 0 0 0 0 0 0 0 0 0 0 0 0 0 0 0 0 0 0 0 0 0 0 1 0 2 0 0 0 0 0 0 0 0 0
0 0 0 0 0 0 0 0 0 0 0 0 0 0 0 0 0 0 0 0 0 0 0 0 0 0 0 0 0 0 0 0 0 0 0 0 0 0 0 0 6 0 0
0 0 0 0 0 0 0 0 0 0 0 0 0 0 0 0 0 0 0 0 0 0 0 0 0 0 0 0 0 0 0 0 0 0 0 0 0 0 0 0 0 0 0
0 0 0 0 0 0 0 0 0 0 0 0 0 0 0 0 0 0 0 0 0 0 0 0 0 0 0 0 0 0 0 0 0 0 0 0 0 0 0 0 0 0 0
0 0 0 0 0 0 0 0 0 0 0 0 0 0 0 0 0 0 0 0 0 0 0 0 0 0 0 0 0 0 0 0 0 0 0 0 0 0 0 0 0 0 0
0 0 0 0 0 0 0 0 0 0 0 0 0 0 0 0 0 0 0 0 0 0 0 0 0 0 0 0 0 0 0 0 0 0 0 0 0 0 0 0 0 0 0
0 0 0 0 0 0 0 0 0 0 0 0 0 0 0 0 0 0 0 0 0 0 0 0 0 0 0 0 0 0 0 0 0 0 0 0 0 0 0 0 0 0 0
0 0 0 0 0 0 0 0 0 0 0 0 0 0 0 0 0 0 0 0 0 0 0 0 0 0 0 0 0 0 0 0 0 0 0 0 0 0 0 0 0 0 0
2 0 0 0 0 0 0 0 0 0 0 0 0 0 0 0 0 0 0 0 0 0 0 0 0 0 0 0 0 0 0 0 0 0 0 0 0 0 0 0 0 0 0
CIN
-106 -82 -77 -50 -38 -29 -39 -40 -37 -153 -43 -54 -96 -102 -117 -51 -32 -24 -27 -28 -23 -23 -36 -94 -93 -64 -35 -110 -122 -52 -131 -54 -75 -99 -82 -188 -184 -143 -112 -129 -63 -103 -137
-100 -52 -62 -61 -47 -53 -57 -43 -120 -102 -66 -53 -60 -141 -121 -60 -90 -34 -20 -25 -60 -61 -26 -20 -99 -79 -106 -26 -105 -119 -118 -117 -100 -80 -139 -136 -125 -121 -55 -77 -87 -87 -144
-91 -55 -24 -11 -15 -49 -55 -52 -42 -40 -49 -50 -47 -57 -55 -47 -43 -48 -45 -25 -33 -32 -50 -41 -27 -12 -78 -16 -12 -84 -16 -16 -12 -11 -9 -13 -18 -17 -101 -105 -117 -142 -124
-28 -0 -11 -9 -10 -16 -43 -39 -32 -26 -61 -51 -38 -29 -23 -8 -9 -30 -91 -103 -81 -53 -43 -48 -30 -28 -63 -75 -13 -6 -8 -11 -9 -13 -8 -7 -10 -15 -14 -14 -43 -55 -62
-8 -16 -8 -13 -18 -0 -27 -38 -49 -51 -38 -45 -47 -18 -6 -2 -4 -7 -11 -49 -77 -72 -18 -17 -16 -17 -15 -22 -54 -59 -76 -61 -55 -54 -48 -21 -47 -52 -43 -13 -11 -42 -107
-1 -16 -44 -33 -41 -25 -13 -7 -43 -54 -30 -37 -34 -49 -51 -37 -16 -13 -19 -16 -13 -15 -12 -50 -13 -19 -22 -21 -11 -13 -7 -45 -32 -39 -32 -34 -37 -24 -14 -16 -16 -20 -74
-47 -20 -1 -10 -45 -21 -13 -57 -48 -113 -55 -29 -36 -75 -54 -54 -48 -36 -28 -36 -27 -29 -26 -58 -65 -54 -33 -85 -46 -38 -27 -15 -7 -24 -33 -34 -41 -53 -12 -12 -17 -29 -40
-23 -54 -35 -13 -7 -17 -3 -123 -118 -120 -83 -43 -26 -43 -62 -68 -68 -57 -54 -46 -35 -25 -38 -42 -35 -32 -31 -35 -63 -74 -70 -77 -68 -37 -30 -62 -60 -59 -31 -39 -35 -44 -68
-39 -27 -12 -23 -14 -14 -50 -145 -76 -31 -40 -63 -16 -70 -66 -73 -89 -80 -75 -72 -59 -48 -38 -33 -42 -35 -43 -53 -47 -37 -38 -42 -27 -13 -14 -17 -17 -21 -21 -18 -28 -25 -26
-19 -0 -3 -20 -20 -31 -39 -20 -29 -30 -15 -15 -58 -75 -85 -96 -105 -101 -92 -89 -80 -68 -52 -44 -38 -28 -30 -63 -45 -48 -39 -34 -40 -55 -33 -36 -27 -30 -25 -16 -13 -6 -8
-0 -50 -32 -7 -2 -2 -6 -18 -2 -25 -24 -8 -16 -67 -39 -98 -116 -73 -88 -90 -98 -98 -88 -59 -53 -53 -60 -59 -58 -50 -47 -40 -44 -34 -49 -65 -66 -63 -46 -36 -27 -24 -22
-0 -0 -0 -0 -0 -0 -0 -0 -0 -0 -0 -5 -5 -12 -9 -17 -29 -21 -23 -27 -54 -31 -39 -46 -55 -55 -60 -59 -59 -57 -52 -49 -39 -60 -82 -77 -86 -81 -144 -110 -59 -94 -81
-0 -0 -0 -0 -0 -0 -0 -0 -0 -0 -0 -0 -0 -0 -1 -2 -2 -57 -34 -25 -17 -13 -2 -2 -39 -38 -42 -42 -50 -45 -40 -27 -50 -52 -0 -0 -0 -110 -87 -67 -39 -29 -65
-0 -0 -0 -0 -0 -0 -0 -0 -0 -0 -0 -0 -0 -0 -0 -0 -0 -0 -0 -0 -0 -0 -0 -0 -0 -0 -0 -11 -27 -28 -32 -38 -0 -1 -0 -0 -120 -0 -57 -40 -60 -28 -95
-0 -0 -0 -0 -0 -0 -0 -0 -0 -0 -0 -0 -0 -0 -0 -0 -0 -0 -0 -0 -0 -0 -0 -0 -0 -0 -0 -0 -0 -0 -0 -0 -0 -24 -4 -0 -0 -0 -0 -0 -0 -81 -106
-0 -0 -0 -0 -0 -0 -0 -0 -0 -0 -0 -0 -0 -0 -0 -0 -0 -0 -0 -0 -0 -0 -0 -0 -0 -0 -0 -0 -0 -0 -0 -0 -0 -0 -0 -0 -0 -0 -0 -0 -0 -0 -0
-0 -0 -0 -0 -0 -0 -0 -0 -0 -0 -0 -0 -0 -0 -0 -0 -0 -0 -0 -0 -0 -0 -0 -0 -0 -0 -0 -0 -0 -1 -1 -0 -0 -0 -0 -0 -0 -0 -0 -0 -0 -0 -0
-0 -0 -0 -0 -0 -0 -0 -0 -0 -0 -0 -0 -0 -0 -0 -0 -0 -0 -0 -0 -0 -0 -0 -0 -0 -0 -0 -0 -0 -0 -0 -0 -0 -0 -0 -0 -0 -0 -0 -0 -0 -0 -0
-0 -0 -0 -0 -0 -0 -0 -0 -0 -0 -0 -0 -0 -0 -0 -0 -0 -0 -0 -0 -0 -0 -0 -0 -0 -0 -0 -0 -0 -0 -0 -0 -0 -0 -0 -0 -0 -0 -0 -0 -0 -0 -0
-0 -0 -0 -0 -0 -0 -0 -0 -0 -0 -0 -0 -0 -0 -0 -0 -0 -0 -0 -0 -0 -0 -0 -0 -0 -0 -0 -0 -0 -0 -0 -0 -0 -0 -0 -0 -0 -0 -0 -0 -0 -0 -0
-0 -0 -0 -0 -0 -0 -0 -0 -0 -0 -0 -0 -0 -0 -0 -0 -0 -0 -0 -0 -0 -0 -0 -0 -0 -0 -0 -0 -0 -0 -0 -0 -0 -0 -0 -0 -0 -0 -0 -0 -0 -0 -0
-0 -0 -0 -0 -0 -0 -0 -0 -0 -0 -0 -0 -0 -0 -0 -0 -0 -0 -0 -0 -0 -0 -0 -0 -0 -0 -0 -0 -0 -0 -0 -0 -0 -0 -0 -0 -0 -0 -0 -0 -0 -0 -0
-0 -0 -0 -0 -0 -0 -0 -0 -0 -0 -0 -0 -0 -0 -0 -0 -0 -0 -0 -0 -0 -0 -0 -0 -0 -0 -0 -0 -0 -0 -0 -0 -0 -0 -0 -0 -0 -0 -0 -0 -0 -0 -0
-0 -0 -0 -0 -0 -0 -0 -0 -0 -0 -0 -0 -0 -0 -0 -0 -0 -0 -0 -0 -0 -0 -0 -0 -0 -0 -0 -0 -0 -0 -0 -0 -0 -0 -0 -0 -0 -0 -0 -0 -0 -0 -0
-0 -0 -0 -0 -0 -0 -0 -0 -0 -0 -0 -0 -0 -0 -0 -0 -0 -0 -0 -0 -0 -0 -0 -0 -0 -0 -0 -0 -0 -0 -0 -0 -0 -0 -0 -0 -0 -0 -0 -0 -0 -0 -0
-0 -0 -0 -0 -0 -0 -0 -0 -0 -0 -0 -0 -0 -0 -0 -0 -0 -0 -0 -0 -0 -0 -0 -0 -0 -0 -0 -0 -0 -0 -0 -0 -0 -0 -0 -0 -0 -0 -0 -0 -0 -0 -0
Wind_Speed
21 19 18 18 18 17 15 14 16 16 14 13 13 11 10 10 11 11 10 10 9 11 9 7 7 7 7 8 7 7 7 7 6 6 6 8 7 5 5 9 10 11 12
27 25 22 22 23 21 19 17 18 17 17 14 15 16 15 13 13 12 13 12 10 9 11 10 7 9 7 7 8 7 8 8 8 7 9 8 9 8 9 10 10 11 13
32 31 34 31 32 31 33 28 23 21 20 19 19 19 16 15 16 15 14 13 12 10 10 10 11 11 9 10 9 9 10 11 11 10 9 9 11 10 12 12 13 16 16
nan nan 41 33 34 35 37 37 35 30 25 23 24 21 18 18 16 16 15 14 13 14 13 12 12 11 10 11 11 10 11 12 14 13 11 9 11 11 13 14 13 14 11
nan nan nan nan nan nan nan nan 39 38 36 32 29 27 25 23 21 18 16 15 15 15 14 13 13 10 9 10 15 15 16 15 15 14 15 17 14 13 10 12 11 11 13
31 37 nan nan nan nan nan nan nan nan nan 39 39 38 35 32 30 28 23 19 17 16 16 15 15 13 11 6 6 5 10 11 10 14 13 12 11 11 11 9 11 13 15
nan 28 26 34 nan nan nan nan nan nan nan nan nan 40 39 39 40 38 35 27 24 22 20 19 18 17 13 13 11 9 9 11 12 12 12 14 13 13 12 12 12 15 15
nan nan nan 29 nan nan nan nan nan nan nan nan nan nan 41 42 41 40 39 36 32 30 28 26 23 21 21 17 15 13 14 16 17 17 15 15 15 15 17 13 14 14 17
30 nan 23 nan nan nan nan nan nan nan nan nan nan 46 45 nan 51 53 46 43 43 42 38 37 35 33 35 34 25 21 21 22 24 18 17 17 18 19 22 23 20 17 14
27 24 22 nan nan nan nan nan nan nan nan nan nan nan nan nan nan nan 53 44 46 41 42 41 41 40 36 35 32 30 28 27 28 27 25 23 23 24 25 29 26 23 19
nan nan nan nan nan nan nan 21 20 nan 28 nan nan nan nan nan nan nan nan nan nan nan nan 43 40 40 36 35 35 33 31 32 29 29 28 29 29 29 31 32 32 31 26
nan nan nan nan nan nan nan nan nan nan nan nan nan nan nan nan nan nan nan nan nan nan nan nan nan nan nan nan nan nan 28 32 32 31 nan nan nan 34 35 34 35 34 33
nan nan nan nan nan nan nan nan nan nan nan nan nan nan nan nan nan nan nan nan nan nan nan nan nan nan nan nan nan nan nan nan nan nan nan nan nan nan 34 34 33 34 32
nan nan nan nan nan nan nan nan nan nan nan nan nan nan nan nan nan nan nan nan nan nan nan nan nan nan nan nan nan nan nan nan nan nan nan nan nan nan 38 39 36 37 31
nan nan nan nan nan nan nan nan nan nan nan nan nan nan nan nan nan nan nan nan nan nan nan nan nan nan nan nan nan nan nan nan nan nan nan nan nan nan nan nan nan nan 32
nan nan nan nan nan nan nan nan nan nan nan nan nan nan nan nan nan nan nan nan nan nan nan nan nan nan nan nan nan nan nan nan nan nan nan nan nan nan nan nan nan nan nan
nan nan nan nan nan nan nan nan nan nan nan nan nan nan nan nan nan nan nan nan nan nan nan nan nan nan nan nan nan nan nan nan nan nan nan nan nan nan nan nan nan nan nan
nan nan nan nan nan nan nan nan nan nan nan nan nan nan nan nan nan nan nan nan nan nan nan nan nan nan nan nan nan nan nan nan nan nan nan nan nan nan nan nan nan nan nan
nan nan nan nan nan nan nan nan nan nan nan nan nan nan nan nan nan nan nan nan nan nan nan nan nan nan nan nan nan nan nan nan nan nan nan nan nan nan nan nan nan nan nan
nan nan nan nan nan nan nan nan nan nan nan nan nan nan nan nan nan nan nan nan nan nan nan nan nan nan nan nan nan nan nan nan nan nan nan nan nan nan nan nan nan nan nan
nan nan nan nan nan nan nan nan nan nan nan nan nan nan nan nan nan nan nan nan nan nan nan nan nan nan nan nan nan nan nan nan nan nan nan nan nan nan nan nan nan nan nan
nan nan nan nan nan nan nan nan nan nan nan nan nan nan nan nan nan nan nan nan nan nan nan nan nan nan nan nan nan nan nan nan nan nan nan nan nan nan nan nan nan nan nan
nan nan nan nan nan nan nan nan nan nan nan nan nan nan nan nan nan nan nan nan nan nan nan nan nan nan nan nan nan nan nan nan nan nan nan nan nan nan nan nan nan nan nan
nan nan nan nan nan nan nan nan nan nan nan nan nan nan nan nan nan nan nan nan nan nan nan nan nan nan nan nan nan nan nan nan nan nan nan nan nan nan nan nan nan nan nan
nan nan nan nan nan nan nan nan nan nan nan nan nan nan nan nan nan nan nan nan nan nan nan nan nan nan nan nan nan nan nan nan nan nan nan nan nan nan nan nan nan nan nan
nan nan nan nan nan nan nan nan nan nan nan nan nan nan nan nan nan nan nan nan nan nan nan nan nan nan nan nan nan nan nan nan nan nan nan nan nan nan nan nan nan nan nan
Wind_Direction
246 238 234 230 216 221 231 233 222 213 214 201 193 196 209 209 217 210 209 215 207 199 207 212 202 215 220 229 233 243 253 269 272 264 290 291 304 311 308 315 330 328 326
241 237 230 230 229 221 223 220 221 219 220 221 214 206 209 213 227 216 205 208 210 205 205 214 215 240 239 234 241 236 242 261 275 272 272 290 308 304 314 323 325 329 340
247 241 239 232 233 233 226 218 220 219 221 231 230 222 221 215 220 225 217 208 205 205 211 218 215 241 241 251 259 261 263 271 279 281 280 290 295 302 306 326 337 339 333
nan nan 239 233 236 237 236 228 224 221 220 225 232 235 228 225 220 224 230 224 212 215 221 222 221 229 236 244 257 261 264 268 279 281 286 295 298 304 309 311 300 304 310
nan nan nan nan nan nan nan nan 233 232 226 220 224 229 231 232 226 225 231 231 224 212 216 214 223 236 236 239 247 251 261 256 258 266 272 281 279 278 277 286 298 303 306
235 230 nan nan nan nan nan nan nan nan nan 235 228 226 226 230 225 219 217 224 237 236 223 219 217 217 223 232 264 286 287 279 273 274 275 280 289 298 304 294 296 294 302
nan 256 239 241 nan nan nan nan nan nan nan nan nan 232 232 233 231 229 228 230 226 235 239 233 227 230 223 230 237 261 272 303 312 283 290 292 290 291 284 281 289 300 315
nan nan nan 271 nan nan nan nan nan nan nan nan nan nan 233 237 227 231 233 238 236 234 237 237 234 233 239 230 234 245 259 263 273 285 296 293 298 290 297 288 286 301 313
243 nan 234 nan nan nan nan nan nan nan nan nan nan 229 237 nan 228 228 234 237 240 239 239 242 243 243 239 235 239 240 245 256 267 284 289 286 288 292 295 287 290 294 292
238 244 241 nan nan nan nan nan nan nan nan nan nan nan nan nan nan nan 231 231 236 240 244 243 247 245 243 245 249 250 253 256 260 262 263 268 277 281 293 298 294 298 295
nan nan nan nan nan nan nan 254 261 nan 283 nan nan nan nan nan nan nan nan nan nan nan nan 240 241 234 236 243 253 256 257 251 251 260 266 270 274 278 281 290 294 295 292
nan nan nan nan nan nan nan nan nan nan nan nan nan nan nan nan nan nan nan nan nan nan nan nan nan nan nan nan nan nan 250 259 263 263 nan nan nan 270 274 278 284 291 293
nan nan nan nan nan nan nan nan nan nan nan nan nan nan nan nan nan nan nan nan nan nan nan nan nan nan nan nan nan nan nan nan nan nan nan nan nan nan 270 275 283 287 289
nan nan nan nan nan nan nan nan nan nan nan nan nan nan nan nan nan nan nan nan nan nan nan nan nan nan nan nan nan nan nan nan nan nan nan nan nan nan 262 268 271 281 280
nan nan nan nan nan nan nan nan nan nan nan nan nan nan nan nan nan nan nan nan nan nan nan nan nan nan nan nan nan nan nan nan nan nan nan nan nan nan nan nan nan nan 274
nan nan nan nan nan nan nan nan nan nan nan nan nan nan nan nan nan nan nan nan nan nan nan nan nan nan nan nan nan nan nan nan nan nan nan nan nan nan nan nan nan nan nan
nan nan nan nan nan nan nan nan nan nan nan nan nan nan nan nan nan nan nan nan nan nan nan nan nan nan nan nan nan nan nan nan nan nan nan nan nan nan nan nan nan nan nan
nan nan nan nan nan nan nan nan nan nan nan nan nan nan nan nan nan nan nan nan nan nan nan nan nan nan nan nan nan nan nan nan nan nan nan nan nan nan nan nan nan nan nan
nan nan nan nan nan nan nan nan nan nan nan nan nan nan nan nan nan nan nan nan nan nan nan nan nan nan nan nan nan nan nan nan nan nan nan nan nan nan nan nan nan nan nan
nan nan nan nan nan nan nan nan nan nan nan nan nan nan nan nan nan nan nan nan nan nan nan nan nan nan nan nan nan nan nan nan nan nan nan nan nan nan nan nan nan nan nan
nan nan nan nan nan nan nan nan nan nan nan nan nan nan nan nan nan nan nan nan nan nan nan nan nan nan nan nan nan nan nan nan nan nan nan nan nan nan nan nan nan nan nan
nan nan nan nan nan nan nan nan nan nan nan nan nan nan nan nan nan nan nan nan nan nan nan nan nan nan nan nan nan nan nan nan nan nan nan nan nan nan nan nan nan nan nan
nan nan nan nan nan nan nan nan nan nan nan nan nan nan nan nan nan nan nan nan nan nan nan nan nan nan nan nan nan nan nan nan nan nan nan nan nan nan nan nan nan nan nan
nan nan nan nan nan nan nan nan nan nan nan nan nan nan nan nan nan nan nan nan nan nan nan nan nan nan nan nan nan nan nan nan nan nan nan nan nan nan nan nan nan nan nan
nan nan nan nan nan nan nan nan nan nan nan nan nan nan nan nan nan nan nan nan nan nan nan nan nan nan nan nan nan nan nan nan nan nan nan nan nan nan nan nan nan nan nan
nan nan nan nan nan nan nan nan nan nan nan nan nan nan nan nan nan nan nan nan nan nan nan nan nan nan nan nan nan nan nan nan nan nan nan nan nan nan nan nan nan nan nan